Location: Gleizolles
(44.4833°N, 6.7667°E)
Time: 01:40:59
(UTC+00:00)

Vanguard 2 Rocket - Pass Details

Date: 24 June 2024
Orbit: 555 x 3302 km, 32.9° (Epoch: 24 July)

Event Time Altitude Azimuth Distance (km) Brightness Sun altitude
Rises 04:58:02 0° 267° (W) 7,261 10.9 9.9°
Reaches altitude 10° 05:03:07 10° 263° (W) 6,257 10.6 10.7°
Maximum altitude 05:21:44 52° 196° (SSW) 3,309 9.7 13.8°
Drops below altitude 10° 05:34:47 10° 125° (SE) 4,526 11.1 16.0°
Sets 05:37:49 0° 120° (ESE) 5,205 11.4 16.6°
